Regional Weather Roundup
Issued by NWS

Home | Current Version | Previous Version | Graphics & Text | Print | Product List | Glossary On
Versions: 1 2 3 4 5 6 7 8 9 10 11 12 13 14 15 16 17 18 19 20 21 22 23 24 25 26 27 28 29 30 31 32 33 34 35 36 37 38 39 40 41 42 43 44 45 46 47 48 49 50
000
ASUS43 KBIS 061501
RWRND

NORTH DAKOTA REGIONAL WEATHER ROUNDUP
NATIONAL WEATHER SERVICE BISMARCK ND
1000 AM CDT WED MAY 06 2015

NOTE: "FAIR" INDICATES FEW OR NO CLOUDS BELOW 12,000 FEET WITH NO
SIGNIFICANT WEATHER AND/OR OBSTRUCTIONS TO VISIBILITY.


NDZ001>003-009>011-017-061600-
NORTHWEST NORTH DAKOTA

CITY           SKY/WX    TMP DP  RH WIND       PRES   REMARKS
WILLISTON      PTSUNNY   62  53  72 S14       29.69F
MINOT          CLOUDY    62  56  80 SE17G25   29.76S
$$

NDZ018>021-031>035-040>046-061600-
SOUTHWEST NORTH DAKOTA

CITY           SKY/WX    TMP DP  RH WIND       PRES   REMARKS
BISMARCK       LGT RAIN  59  58  96 E9        29.77F FOG
DICKINSON      CLOUDY    58  54  86 S15       29.72F
GARRISON         N/A     59  58  96 SE10      29.76F
HETTINGER ARPT LGT RAIN  57  54  89 SE12      29.73F FOG
$$

NDZ004>008-012>016-024-026-027-054-061600-
NORTHEAST NORTH DAKOTA

CITY           SKY/WX    TMP DP  RH WIND       PRES   REMARKS
GRAND FORKS    CLOUDY    60  56  86 S16G26    29.89F
DEVILS LAKE    CLOUDY    57  54  88 SE13      29.83F
$$

NDZ022-023-025-028>030-036>039-047>053-061600-
SOUTHEAST NORTH DAKOTA

CITY           SKY/WX    TMP DP  RH WIND       PRES   REMARKS
FARGO          LGT RAIN  59  56  89 SE15G25   29.90F FOG
JAMESTOWN      LGT RAIN  57  57 100 SE15      29.83F FOG
$$



USA.gov is the U.S. government's official web portal to all federal, state and local government web resources and services.